Flight Track Log - Related Links

Times and Time Zones

All times are in EDT time to prevent confusion due to time zone crossing. See the N400PU flight status page for this flight to view local times or setup timezone preferences in your user account.

Time Position Orientation Groundspeed Altitude Reporting Facility
EDT Latitude Longitude Course Direction KTS MPH feet Rate Location/Type
Mon 14:39:38 41.9000 -87.8833 160° South 239 275 3,900  Level Chicago TRACON
Mon 14:40:38 41.8333 -87.8500 160° South 299 344 6,500 2,838 Climbing Chicago TRACON
Mon 14:42:06 41.7292 -87.7767 152° Southeast 307 353 10,900 1,800 Climbing Chicago Center
Mon 14:43:08 41.6353 -87.7119 153° Southeast 378 435 11,000 48 Climbing Chicago Center
Mon 14:44:10 41.5325 -87.6439 154° Southeast 405 466 11,000  Level Chicago Center
Mon 14:45:12 41.4317 -87.5778 154° Southeast 403 464 11,000  Level Chicago Center
Mon 14:46:14 41.3103 -87.5008 155° Southeast 401 461 11,000 -48 Level Chicago Center
Mon 14:47:17 41.2078 -87.4353 154° Southeast 406 467 10,900 -48 Descending Chicago Center
Mon 14:48:19 41.1047 -87.3711 155° Southeast 407 468 10,900 47 Level Chicago Center
Mon 14:49:26 40.9831 -87.2939 154° Southeast 411 473 11,000  Climbing Chicago Center
Mon 14:49:38 40.9586 -87.2786 155° Southeast 411 473 10,900 -842 Descending Chicago Center
Mon 14:50:23 40.9064 -87.2439 153° Southeast 384 442 10,200 -1,075 Descending Chicago Center
Mon 14:50:45 40.8669 -87.2225 158° South 329 379 9,700 -1,645 Descending Chicago Center
Mon 14:51:25 40.8272 -87.1953 153° Southeast 317 365 8,500 -2,459 Descending Chicago Center
Mon 14:51:46 40.7856 -87.1700 155° Southeast 298 343 7,200 -2,516 Descending Chicago Center
Mon 14:52:27 40.7356 -87.1375 154° Southeast 304 350 5,900 -1,700 Descending Chicago Center
Mon 14:52:46 40.7144 -87.1264 158° South 296 341 5,500 -1,645 Descending Chicago Center
Mon 14:53:29 40.6656 -87.0947 154° Southeast 284 327 4,200 -1,770 Descending Chicago Center
Mon 14:53:47 40.6431 -87.0803 154° Southeast 272 313 3,700 -1,258 Descending Chicago Center
Mon 14:54:31 40.5964 -87.0481 152° Southeast 275 316 2,900 -1,500 Descending Chicago Center
Mon 14:54:47 40.5739 -87.0400 165° South 257 296 2,200 -545 Descending Chicago Center
Mon 14:55:48 40.5228 -87.0064 153° Southeast 214 246 2,200 -49 Level Chicago Center
Mon 14:56:49 40.4719 -86.9756 155° Southeast 183 211 2,100 -50 Descending Chicago Center
Mon 14:57:49 40.4450 -86.9164 121° Southeast 197 227 2,100 -347 Level Chicago Center
Mon 14:58:50 40.4131 -86.8789 138° Southeast 160 184 1,400 -689 Descending Chicago Center
Mon 15:00:00 40.4000 -86.9333 153° Southeast  Level FlightAware Approximate
Mon 15:07:00 40.4123 -86.9369 153° Southeast  Level Estimated
Mon 15:08:00 40.4123 -86.9369 153° Southeast  Level Estimated

Login

Don't have an account? Register now (free) for customized features, flight alerts, and more!